This demonstration page uses our WeatherBlox Daily Observations layout. Learn more.

Left ArrowRight Arrow

36.17497, -115.13722

Hourly Observations for March 11, 2019

Temp ( °F °C ) Dew Point ( °F °C ) Humidity (%) Winds ( mph kmh ) Pressure ( in mb ) Visibility ( mi km ) Precip ( " mm )
12:53 am 00:53 Clear 47 8.3 36 2.2 66 66 NNW 9 15 29.99 1016 10 16 0.00 0.00
1:53 am 01:53 Clear 47 8.3 35 1.7 63 63 NNW 10 17 29.99 1016 10 16 0.00 0.00
2:53 am 02:53 Clear 47 8.3 34 1.1 61 61 NNW 13 20 30.00 1016 10 16 0.00 0.00
3:53 am 03:53 Clear 46 7.8 33 0.6 61 61 NNW 12 19 29.99 1016 10 16 0.00 0.00
4:53 am 04:53 Clear 46 7.8 34 1.1 63 63 N 12 19 30.01 1016 10 16 0.00 0.00
5:53 am 05:53 Clear 47 8.3 35 1.7 63 63 N 15 24 30.02 1017 10 16 0.00 0.00
6:53 am 06:53 Clear 46 7.8 34 1.1 63 63 NNW 9 15 30.03 1017 10 16 0.00 0.00
7:53 am 07:53 Sunny 47 8.3 33 0.6 59 59 NNW 8 13 30.06 1018 10 16 0.00 0.00
8:53 am 08:53 Mostly Sunny 51 10.6 33 0.6 50 50 N 13 20 30.06 1018 10 16 0.00 0.00
9:53 am 09:53 Sunny 54 12.2 33 0.6 45 45 N 13 20 30.05 1018 10 16 0.00 0.00
10:53 am 10:53 Sunny 57 13.9 31 -0.6 37 37 N 12 19 30.04 1017 10 16 0.00 0.00
11:53 am 11:53 Sunny 58 14.4 30 -1.1 35 35 Calm 30.02 1017 10 16 0.00 0.00
12:53 pm 12:53 Mostly Cloudy 61 16.1 30 -1.1 31 31 N 5 7 30.01 1016 10 16 0.00 0.00
1:53 pm 13:53 Sunny 62 16.7 27 -2.8 26 26 E 9 15 29.97 1015 10 16 0.00 0.00
2:53 pm 14:53 Mostly Sunny 62 16.7 27 -2.8 26 26 NE 10 17 29.95 1014 10 16 0.00 0.00
3:53 pm 15:53 Sunny 64 17.8 27 -2.8 25 25 NE 10 17 29.92 1013 10 16 0.00 0.00
4:53 pm 16:53 Sunny 64 17.8 27 -2.8 25 25 N 9 15 29.89 1012 10 16 0.00 0.00
5:53 pm 17:53 Partly Cloudy 63 17.2 27 -2.8 26 26 N 12 19 29.87 1012 10 16 0.00 0.00
6:53 pm 18:53 Cloudy 62 16.7 28 -2.2 28 28 NNW 8 13 29.88 1012 10 16 0.00 0.00
7:53 pm 19:53 Cloudy 62 16.7 28 -2.2 28 28 NNE 3 6 29.86 1011 10 16 0.00 0.00
8:53 pm 20:53 Cloudy 60 15.6 34 1.1 38 38 E 14 22 29.87 1012 10 16 0.00 0.00
9:53 pm 21:53 Cloudy with Light Rain 55 12.8 41 5 59 59 ESE 14 22 29.90 1013 10 16 0.00 0.03
10:53 pm 22:53 Cloudy with Light Rain 52 11.1 46 7.8 80 80 S 5 7 29.93 1013 10 16 0.02 0.51
11:51 pm 23:51 Cloudy with Light Rain 52 11 46 8 82 82 NNE 5 7 29.88 1012 8 13 0.05 1.27
11:53 pm 23:53 Cloudy with Light Rain 51 10.6 47 8.3 86 86 NNE 3 6 29.92 1013 7 11 0.05 1.27

Powered by AerisWeather